VCC B

Last updated on Mon Oct 11 2021 23:04:52 GMT+0000 (Coordinated Universal Time)

1 44431U 98067QR 21284.36680805 .02529492 11893-4 11857-2 0 9992 2 44431 51.6158 42.9793 0011621 327.4948 32.5354 16.20697827129963

Satellite not in orbit